Torna al catalogo

STARLINK-31537

AttivoComunicazioniVLEO
NORAD 59365·PAYLOAD·🇺🇸 United States

Lanciato Mar 31, 2024 da Cape Canaveral Space Force Station

Loading…

Prossimi Passaggi (prossime 24 ore)

TLE

AggiornatoSource: CelesTrak SupGP

Epoca: Sep 15, 2026, 02:37 UTC

1 59365C 24060T   26258.10951389 -.00007972  00000+0 -28880-3 0  2582
2 59365  43.0003 270.4020 0001325 264.3641 279.4187 15.27578189    14

Traccia STARLINK-31537 in tempo reale con AllMySat

Download on the App Store